Location: Newark
(34.9500°N, 139.9667°E)
Time: 18:29:19
(UTC+00:00)

Vanguard 2 Rocket - Pass Details

Date: 11 December 2019
Orbit: 554 x 3326 km, 32.9° (Epoch: 23 January)

Event Time Altitude Azimuth Distance (km) Brightness Sun altitude
Rises 06:17:43 0° 221° (SW) 7,273 13.4 11.4°
Reaches altitude 10° 06:23:19 10° 215° (SW) 6,112 12.9 10.5°
Maximum altitude 06:39:38 41° 153° (SSE) 3,272 9.9 7.8°
Drops below altitude 10° 06:50:22 10° 89° (E) 4,102 9.8 5.9°
Sets 06:53:17 0° 82° (E) 4,763 10.0 5.4°
